Regional Weather Roundup
Issued by NWS

Home | Current Version | Previous Version | Text Only | Print | Product List | Glossary Off
Versions: 1 2 3 4 5 6 7 8 9 10 11 12 13 14 15 16 17 18 19 20 21 22 23 24 25 26 27 28 29 30 31 32 33 34 35 36 37 38 39 40 41 42 43 44 45 46 47 48 49 50

000
ASUS43 KMPX 271001
RWRMN
WEATHER ROUNDUP FOR MINNESOTA
NATIONAL WEATHER SERVICE TWIN CITIES/CHANHASSEN MN
500 AM CDT WED MAY 27 2015


NOTE: "FAIR" INDICATES FEW OR NO CLOUDS BELOW 12,000 FEET WITH NO
SIGNIFICANT WEATHER AND/OR OBSTRUCTIONS TO VISIBILITY. N/A MEANS
CURRENT SKY AND/OR WEATHER CONDITIONS ARE NOT AVAILABLE.

MNZ060>063-068>070-271100-
   Twin Cities Metro

CITY           SKY/WX    TMP DP  RH WIND       PRES   REMARKS
TWIN CITIES    CLOUDY    55  55 100 CALM      29.86R
ST PAUL        CLOUDY    55  55 100 CALM      29.87R
CRYSTAL        LGT RAIN  54  54 100 CALM      29.85R
BLAINE         CLOUDY    57  57 100 SW6       29.85S
LAKEVILLE      CLOUDY    54  54 100 W3        29.87R
EDEN PRAIRIE   CLOUDY    55  54  96 W3        29.86R FOG
SOUTH ST PAUL  CLOUDY    56  55  97 CALM      29.86R FOG
LAKE ELMO      FOG       54  54 100 CALM      29.87R VSB 3/4
$$
MNZ001>005-007-008-013>017-022>024-027-028-271100-
   Northwest Minnesota

CITY           SKY/WX    TMP DP  RH WIND       PRES   REMARKS
BEMIDJI        CLEAR     51  49  95 CALM      29.80R
HALLOCK        PTCLDY    55  46  71 NW10      29.85R
ROSEAU         CLEAR     54  46  76 NW5       29.82R
WARROAD        CLEAR     52  46  82 NW8       29.81R
THIEF RVR FALL MOCLDY    57  48  72 NW7       29.83R
CROOKSTON      CLEAR     57  48  72 N7        29.82R
FOSSTON        PTCLDY    52  50  93 CALM      29.82R
DETROIT LAKES  CLEAR     54  52  94 CALM      29.83S
MOORHEAD       PTCLDY    54  50  87 CALM      29.84R
PARK RAPIDS    CLEAR     53  50  89 CALM      29.81R
MAHNOMEN       FAIR      53  50  92 S6        29.82R
$$
MNZ006-009>011-018-025>026-271100-
   North Central Minnesota

CITY           SKY/WX    TMP DP  RH WIND       PRES   REMARKS
BAUDETTE       CLEAR     55  49  80 NW8       29.78R
FLAG ISLAND    CLEAR     55  48  76 NW14      29.79R
INTL FALLS     CLEAR     47  46  97 CALM      29.76R
WASKISH        CLEAR     61  55  82 W8        29.79R
BIG FORK       FOG       48  48 100 CALM      29.79S VSB 1/4
LONGVILLE      CLEAR     48  46  93 CALM      29.81R
GRAND RAPIDS   PTCLDY    48  46  93 CALM      29.80S
CRANE LAKE     MOCLDY    46  45  93 CALM      29.78R
COOK           MOCLDY    52  52 100 CALM      29.79R
WALKER         FAIR      50  49  98 CALM      29.80R FOG
$$
MNZ012-019>021-037-271100-
   Northeast Minnesota

CITY           SKY/WX    TMP DP  RH WIND       PRES   REMARKS
DULUTH         CLOUDY    53  48  83 W9        29.79S
HIBBING        FOG       45  43  93 CALM      29.79R VSB 1/2
EVELETH        CLOUDY    52  50  93 W5        29.80R
DULUTH HARBOR  MOCLDY    54 N/A N/A SW8       29.79S
TWO HARBORS    MOCLDY    61  52  72 W8        29.75S
GRAND MARAIS     N/A     46  43  89 SW5       29.71S
G MARAIS ARPRT MOCLDY    55  48  76 W3        29.75R
$$
MNZ029>031-032-039>041-046>048-054>057-064-271100-
   West Central Minnesota

CITY           SKY/WX    TMP DP  RH WIND       PRES   REMARKS
FERGUS FALLS   PTCLDY    54  54 100 CALM      29.85R
WHEATON        CLEAR     55  48  76 W5        29.87R
MORRIS         CLEAR     55  50  82 W5        29.85R
ALEXANDRIA     CLEAR     53  52  96 W6        29.86R
ELBOW LAKE     FAIR      54  50  87 SW5       29.84S
WADENA         CLEAR     52  52 100 W5        29.82S
GLENWOOD       PTCLDY    54  52  94 SW5       29.86R
APPLETON       CLEAR     52  48  87 W6        29.86R
BENSON         CLEAR     54  50  87 W5        29.86R
ORTONVILLE     CLEAR     57  48  72 W7        29.86R
MADISON        CLEAR     55  48  76 W7        29.87R
WILLMAR        FAIR      54  54 100 CALM      29.87R FOG
$$
MNZ033>034-036-042>043-049>051-058-059-271100-
   Central Minnesota

CITY           SKY/WX    TMP DP  RH WIND       PRES   REMARKS
ST CLOUD       MOCLDY    51  51 100 S5        29.85R
SAUK CENTRE    FAIR      55  52  92 CALM      29.85R
PAYNESVILLE    PTCLDY    49  49 100 CALM      29.86R FOG
AITKIN         MOCLDY    52  46  82 CALM      29.80S
PINE RIVER     CLEAR     48  48 100 CALM      29.85R
BRAINERD       PTCLDY    49  49 100 SW5       29.83R
STAPLES        CLEAR     48  48 100 CALM      29.83R
LONG PRAIRIE   FAIR      52  52 100 S5        29.85R
LITTLE FALLS     N/A     52  50  93 CALM      29.84R FOG
LITCHFIELD     MOCLDY    57  55  94 SW3       29.87R
BUFFALO        CLOUDY    54  52  94 CALM      29.87R FOG
MAPLE LAKE     CLOUDY    54  53  98 CALM      29.87R FOG
$$
MNZ037-044-045-052-053-271100-
   East Central Minnesota

CITY           SKY/WX    TMP DP  RH WIND       PRES   REMARKS
PRINCETON      CLOUDY    52  50  93 CALM      29.85S FOG
MORA           CLOUDY    50  50 100 CALM      29.86R
CAMBRIDGE      CLOUDY    55  48  76 CALM      29.83R
RUSH CITY      CLOUDY    51  50  97 CALM      29.84S
MOOSE LAKE     CLOUDY    46  46 100 CALM      29.80S FOG
HINCKLEY       PTSUNNY   52  52 100 W5        29.84R
CLOQUET        CLOUDY    55  48  76 SW7       29.80S
MCGREGOR       CLOUDY    54  52  94 SW3       29.82R
$$
MNZ071>073-080-081-089-090-097-098-271100-
   Southwest Minnesota

CITY           SKY/WX    TMP DP  RH WIND       PRES   REMARKS
MONTEVIDEO     CLEAR     55  52  88 W5        29.88R
GRANITE FALLS  CLEAR     53  50  89 SW6       29.89R
CANBY          CLEAR     58  49  73 W10       29.89R
MARSHALL       CLEAR     54  46  76 W7        29.88S
REDWOOD FALLS  PTCLDY    54  51  90 SW7       29.87R
OLIVIA         PTCLDY    50  46  87 S6        29.86R FOG
PIPESTONE      CLEAR     52  48  87 W6        29.92R
WINDOM         PTCLDY    54  52  94 CALM      29.91R FOG
WORTHINGTON    PTCLDY    55  48  76 W12       29.93R
JACKSON        PTCLDY    54  52  94 SW6       29.93R FOG
TRACY          CLEAR     59  52  78 W8        29.89S
SLAYTON        CLEAR     56  51  83 W12       29.92R
$$
MNZ065>067-074>077-082>085-091>093-271100-
   South Central Minnesota

CITY           SKY/WX    TMP DP  RH WIND       PRES   REMARKS
MANKATO        CLOUDY    55  54  94 SW7       29.89R
NEW ULM        CLOUDY    54  54 100 SW5       29.88S
ST JAMES       CLOUDY    55  54  94 SW5       29.91R
FAIRMONT       MOCLDY    55  50  82 W9        29.91R
GLENCOE        CLOUDY    56  56  97 SW3       29.87R
FARIBAULT      CLOUDY    55  55 100 SW3       29.88S FOG
OWATONNA       CLOUDY    55  54  94 SW3       29.88S FOG
WASECA         CLOUDY    54  52  94 CALM      29.90R FOG
ALBERT LEA     CLOUDY    55  55 100 W3        29.89R FOG
$$
MNZ078>079-086>088-094>096-271100-
   Southeast Minnesota

CITY           SKY/WX    TMP DP  RH WIND       PRES   REMARKS
ROCHESTER      CLOUDY    56  54  93 W7        29.88S
RED WING       CLOUDY    57  55  94 CALM      29.85R FOG
STANTON        CLOUDY    56  54  92 SW5       29.86R
DODGE CENTER   CLOUDY    55  55 100 W8        29.88R FOG
WINONA         CLOUDY    59  55  88 CALM      29.86R
AUSTIN         CLOUDY    55  55 100 W5        29.89R FOG
PRESTON        CLOUDY    55  54  95 NW7       29.88R
$$
ABBREVIATIONS USED IN REMARKS
   TC - TEMPERATURES IN CELSIUS
  WCI - WIND CHILL INDEX
   HX - HEAT INDEX
  VSB - VISIBILITY
$$



USA.gov is the U.S. government's official web portal to all federal, state and local government web resources and services.